Temp
61 61 61 61 60 60 60 60 60 60 60 60 60 59 59 60 60 60 60 60 60 60 60 61 61 62 56 59 68 82 82 79 78 79 80 79 76 73 71 73 76 73 74 78 79 77 77
61 61 61 61 60 60 59 59 60 60 59 59 59 59 59 59 59 60 60 59 59 59 60 61 62 62 54 59 81 81 80 76 77 79 78 81 79 79 75 75 73 77 77 76 75 74 74
61 61 60 60 60 59 59 59 59 59 59 59 59 59 59 59 59 59 59 59 58 59 60 62 62 62 57 70 82 78 74 74 77 80 77 81 81 77 76 72 78 79 71 75 73 73 72
60 60 60 60 60 59 59 59 59 59 59 58 59 59 59 59 59 59 58 57 58 60 62 62 62 57 60 79 77 78 77 76 78 77 81 82 81 76 75 77 76 70 69 63 72 74 74
60 60 60 60 60 59 58 58 58 58 58 58 58 58 58 58 58 57 56 56 59 62 62 63 56 55 62 81 77 79 80 78 77 76 80 92 80 72 73 68 63 65 60 61 66 74 73
60 60 60 60 59 59 58 58 58 58 58 58 58 57 57 57 57 56 55 56 58 59 61 64 67 58 70 75 78 81 79 83 77 76 77 75 69 64 62 61 54 60 62 60 63 71 71
60 60 59 59 59 59 58 58 58 58 58 57 57 57 57 57 56 55 53 51 60 58 57 63 64 67 75 79 82 79 81 79 77 71 64 68 63 59 64 68 70 68 65 68 68 72 66
60 59 59 59 58 58 58 58 57 57 57 57 57 57 57 56 55 55 49 57 59 58 55 66 69 71 77 76 73 80 83 73 70 64 63 62 60 67 72 71 70 69 64 64 67 71 68
59 59 58 58 58 58 58 57 57 57 57 57 57 56 56 55 54 52 49 55 62 58 52 63 67 68 70 74 71 75 79 73 67 64 62 58 64 73 72 67 67 62 64 63 68 68 66
59 58 58 58 58 58 57 57 57 57 56 56 56 56 55 54 53 47 53 57 58 58 48 57 63 72 71 72 66 82 82 77 69 65 65 63 72 72 68 68 67 58 69 71 67 64 55
58 58 58 58 58 57 57 56 56 56 56 56 56 55 55 54 46 46 59 52 55 58 40 66 67 78 70 68 69 73 81 74 67 67 64 62 66 68 65 69 72 68 71 69 66 60 57
58 58 58 58 58 57 57 56 56 56 56 56 55 55 54 50 46 49 54 51 56 51 41 61 69 66 64 65 70 72 76 77 75 69 63 68 72 72 72 73 76 74 68 61 56 54 47
58 58 58 57 57 57 56 56 56 56 55 55 54 53 52 54 47 50 52 57 47 41 61 60 59 62 62 63 66 67 68 65 61 54 52 61 67 69 74 67 68 66 58 48 46 45 46
58 58 58 57 57 57 56 56 56 55 55 54 53 51 49 52 48 51 52 51 38 54 55 61 63 62 58 62 63 67 63 60 62 60 53 53 54 67 72 68 64 61 60 49 44 43 50
58 58 57 57 57 57 56 56 56 55 55 54 52 45 43 48 52 48 51 40 45 51 61 60 61 54 54 62 63 62 60 61 66 64 57 51 54 67 72 73 73 60 55 61 50 43 47
57 58 57 57 57 56 56 56 56 55 54 53 46 43 43 53 54 50 46 43 49 59 62 61 51 55 50 54 58 57 55 65 66 69 65 60 50 64 72 70 69 68 66 56 48 43 40
58 57 57 57 57 57 56 56 56 55 54 53 40 42 55 52 51 48 41 44 55 62 63 59 55 53 53 54 57 54 58 66 70 70 66 60 55 58 64 65 65 60 56 53 53 49 45
57 57 57 57 57 57 57 56 55 54 52 50 41 41 55 54 46 40 41 48 56 59 62 61 58 58 57 59 55 56 58 65 72 70 62 63 59 55 59 64 69 70 62 59 57 47 46
57 57 57 57 57 57 57 56 55 53 52 47 37 38 49 52 39 41 46 53 57 57 57 57 57 60 61 57 52 57 61 71 73 68 63 62 52 53 53 57 59 60 59 55 53 50 46
57 57 57 57 57 57 57 56 55 53 53 48 41 33 42 46 42 40 42 47 51 63 61 62 60 60 56 54 57 56 59 70 73 72 71 71 53 58 56 60 61 58 62 59 58 49 50
57 57 56 57 57 57 57 56 55 54 53 48 43 35 39 36 41 40 39 46 50 51 59 59 54 57 56 50 54 55 62 66 70 67 65 60 57 58 68 64 64 64 63 60 58 58 58
56 56 56 56 57 57 57 57 56 54 52 46 41 39 40 37 40 40 40 42 48 52 52 54 53 60 58 54 57 56 60 59 60 61 60 57 55 54 63 67 65 65 65 64 63 61 62
56 56 56 57 57 57 57 57 56 55 50 39 40 42 42 41 38 38 40 43 48 51 55 59 58 54 54 58 61 63 63 65 59 59 53 54 53 49 55 58 58 53 67 65 64 63 65
55 56 56 56 56 56 57 57 56 55 51 46 48 43 40 37 41 43 46 46 47 51 48 55 57 51 59 61 63 57 56 63 59 54 55 53 51 49 57 50 43 63 66 73 70 65 66
56 56 56 56 56 56 57 56 56 56 54 46 47 41 40 37 44 44 45 46 48 49 49 54 59 61 57 56 52 52 52 58 63 62 57 54 50 49 47 46 53 59 62 65 67 63 64
55 55 55 55 55 55 56 56 56 57 55 47 41 44 40 36 39 47 42 45 41 43 46 52 60 59 53 50 49 45 47 50 52 58 59 58 54 49 44 46 47 54 61 65 63 57 64
55 55 55 55 55 56 56 56 56 56 55 48 44 48 43 38 45 45 41 41 47 45 43 47 50 48 51 44 44 44 46 54 49 51 48 50 51 49 46 45 50 57 61 64 58 55 60
54 54 54 54 55 55 55 56 56 56 56 49 44 48 44 40 44 48 49 45 45 45 41 47 46 46 45 43 43 43 44 50 50 55 52 52 48 46 47 47 45 60 61 59 61 60 61
54 54 54 54 55 55 55 55 55 55 55 53 43 45 50 42 43 49 50 53 52 52 46 48 44 43 46 42 43 43 45 46 46 48 58 51 53 47 49 48 54 56 55 59 62 66 65
MSLP
1022.89 1022.47 1021.96 1021.58 1021.19 1020.73 1020.26 1019.82 1019.40 1018.90 1018.42 1017.86 1017.20 1016.72 1016.19 1015.48 1014.73 1014.15 1013.54 1012.89 1012.24 1011.65 1011.26 1010.90 1010.68 1010.52 1010.23 1009.08 1005.45 1002.90 1002.88 1002.83 1003.35 1004.00 1004.09 1004.32 1004.64 1004.98 1005.01 1004.83 1004.74 1004.78 1004.41 1004.88 1004.97 1005.60 1006.49
1023.10 1022.72 1022.20 1021.76 1021.28 1020.82 1020.38 1019.84 1019.28 1018.79 1018.27 1017.76 1017.15 1016.44 1015.89 1015.27 1014.52 1013.74 1013.02 1012.42 1011.81 1011.25 1010.70 1010.45 1010.27 1010.38 1010.15 1007.57 1003.06 1002.91 1003.04 1003.28 1003.26 1003.64 1003.94 1003.79 1003.84 1003.74 1004.06 1004.20 1004.34 1004.10 1004.29 1004.80 1005.46 1006.12 1006.95
1023.05 1022.71 1022.24 1021.78 1021.46 1021.07 1020.55 1019.96 1019.38 1018.73 1018.09 1017.55 1016.94 1016.38 1015.67 1014.94 1014.25 1013.45 1012.56 1011.84 1011.29 1010.59 1010.04 1009.76 1009.84 1009.90 1009.24 1004.76 1002.51 1002.71 1002.98 1003.04 1003.07 1003.02 1003.63 1003.41 1003.29 1003.44 1003.67 1003.85 1003.92 1004.23 1005.19 1005.20 1006.13 1006.45 1007.32
1023.10 1022.65 1022.18 1021.72 1021.34 1020.92 1020.52 1020.07 1019.54 1018.91 1018.14 1017.35 1016.62 1016.02 1015.44 1014.76 1013.91 1012.88 1012.05 1011.28 1010.63 1009.97 1009.34 1009.27 1009.51 1009.41 1007.10 1002.97 1002.69 1002.64 1002.64 1002.69 1002.79 1002.91 1002.95 1003.04 1003.25 1003.54 1003.51 1003.52 1003.96 1004.65 1005.02 1006.12 1006.57 1006.67 1007.37
1023.13 1022.74 1022.29 1021.81 1021.29 1020.80 1020.32 1019.83 1019.31 1018.76 1018.18 1017.47 1016.68 1015.82 1015.00 1014.22 1013.59 1012.78 1011.52 1010.50 1009.97 1009.45 1009.39 1009.34 1009.27 1008.75 1005.37 1002.61 1002.52 1001.83 1001.96 1002.37 1002.65 1002.83 1002.92 1002.82 1003.31 1003.79 1003.72 1004.28 1005.11 1005.42 1005.77 1006.34 1006.80 1006.72 1007.31
1023.33 1022.89 1022.45 1022.01 1021.56 1021.00 1020.41 1019.80 1019.12 1018.36 1017.73 1017.14 1016.45 1015.72 1014.87 1013.99 1013.16 1012.21 1011.05 1009.73 1009.51 1009.54 1009.47 1009.26 1008.66 1008.20 1004.33 1002.62 1002.01 1001.72 1001.62 1001.95 1002.30 1002.85 1003.12 1003.20 1003.72 1004.23 1004.66 1004.97 1005.53 1005.58 1005.97 1006.34 1006.51 1006.65 1007.19
1023.25 1022.83 1022.39 1021.98 1021.58 1021.08 1020.56 1019.95 1019.27 1018.44 1017.67 1016.94 1016.20 1015.45 1014.65 1013.67 1012.89 1012.02 1010.95 1009.98 1009.74 1009.54 1008.88 1007.55 1006.67 1005.44 1003.45 1002.28 1001.81 1001.33 1001.44 1001.99 1002.16 1002.92 1003.40 1003.48 1004.22 1004.31 1004.58 1004.42 1004.31 1004.95 1005.55 1005.72 1006.24 1006.77 1007.58
1023.21 1022.82 1022.34 1021.83 1021.40 1020.94 1020.51 1019.98 1019.27 1018.50 1017.67 1016.85 1016.19 1015.42 1014.55 1013.53 1012.65 1011.85 1011.49 1011.03 1010.36 1010.27 1008.60 1006.07 1004.65 1003.86 1002.55 1002.29 1002.14 1001.33 1001.53 1002.21 1002.60 1003.22 1003.49 1003.98 1003.67 1003.98 1004.03 1004.17 1004.40 1004.88 1005.51 1005.90 1006.49 1006.80 1008.02
1023.03 1022.71 1022.33 1021.86 1021.35 1020.85 1020.37 1019.83 1019.19 1018.45 1017.73 1016.87 1016.06 1015.22 1014.42 1013.26 1012.09 1011.69 1011.96 1010.64 1010.05 1009.70 1009.22 1004.53 1003.25 1002.34 1001.55 1001.93 1001.50 1000.92 1001.41 1001.72 1002.48 1003.22 1003.59 1003.77 1003.42 1003.64 1003.88 1004.22 1004.53 1004.79 1005.08 1005.80 1006.34 1007.30 1007.91
1022.88 1022.40 1021.99 1021.59 1021.17 1020.64 1020.19 1019.63 1019.03 1018.32 1017.57 1016.80 1016.08 1015.18 1014.56 1013.38 1012.08 1012.50 1011.19 1010.15 1010.08 1009.92 1008.83 1004.41 1002.30 1000.75 1000.76 1000.75 1000.72 1000.01 1000.27 1000.94 1002.01 1002.69 1003.46 1003.47 1002.76 1002.88 1003.41 1003.83 1003.91 1004.53 1004.34 1005.24 1006.47 1007.33 1008.18
1022.82 1022.39 1021.90 1021.51 1021.04 1020.53 1020.02 1019.29 1018.59 1018.00 1017.37 1016.56 1015.91 1015.02 1014.85 1014.57 1014.05 1012.89 1010.36 1010.26 1010.01 1009.67 1007.76 1002.92 1000.88 999.63 999.96 1000.39 999.77 999.48 999.81 1000.33 1001.38 1002.16 1002.90 1002.63 1002.24 1002.40 1002.57 1002.64 1003.11 1003.44 1003.86 1005.24 1006.43 1007.71 1008.21
1022.63 1022.11 1021.56 1021.10 1020.75 1020.39 1019.89 1019.18 1018.44 1017.61 1016.84 1016.10 1015.48 1014.51 1014.66 1014.18 1013.90 1011.20 1010.24 1010.16 1010.12 1009.59 1006.39 1002.55 1000.49 999.96 1000.28 1000.10 999.76 999.35 999.45 999.79 1000.64 1001.88 1002.39 1002.34 1001.56 1001.61 1001.51 1001.95 1002.20 1002.96 1004.60 1006.29 1007.60 1008.29 1009.12
1022.48 1022.04 1021.54 1020.94 1020.43 1019.99 1019.48 1018.86 1018.20 1017.42 1016.56 1015.44 1014.67 1013.60 1013.72 1013.80 1011.86 1010.55 1010.28 1009.93 1010.36 1008.08 1004.57 1002.42 1001.13 1000.44 1000.19 1000.07 999.95 999.56 999.92 1000.37 1001.03 1002.03 1002.34 1002.56 1001.71 1001.11 1000.70 1001.60 1002.11 1002.69 1004.70 1006.76 1008.54 1009.22 1009.05
1022.27 1021.96 1021.51 1020.94 1020.43 1019.88 1019.37 1018.67 1017.93 1017.17 1016.20 1015.00 1013.83 1012.51 1011.57 1011.03 1010.66 1010.96 1011.00 1010.67 1009.34 1006.20 1004.02 1002.25 1001.45 1000.70 1000.39 1000.12 999.82 999.69 1000.07 1000.66 1001.10 1001.58 1002.83 1002.80 1001.91 1000.77 1000.60 1000.92 1001.72 1002.96 1004.09 1006.25 1007.70 1008.85 1008.69
1021.98 1021.57 1021.13 1020.68 1020.13 1019.63 1019.30 1018.60 1017.86 1017.11 1016.14 1014.76 1013.07 1011.96 1011.48 1010.04 1010.31 1010.72 1010.68 1010.06 1007.31 1005.72 1003.78 1002.37 1001.67 1001.23 1000.86 1000.37 1000.07 1000.14 1000.44 1000.47 1000.63 1001.11 1001.92 1002.47 1001.71 1000.50 1000.05 1000.25 1000.90 1002.84 1003.96 1004.76 1006.69 1008.43 1008.51
1021.73 1021.32 1020.93 1020.42 1020.05 1019.62 1019.03 1018.47 1017.71 1016.88 1015.97 1014.63 1013.77 1012.68 1010.71 1009.46 1009.76 1010.08 1010.23 1008.28 1006.57 1004.57 1003.28 1002.42 1002.16 1001.68 1001.37 1001.29 1001.27 1001.03 1000.65 999.88 999.83 999.97 1000.53 1001.31 1001.68 1000.61 1000.16 1000.11 1000.51 1001.13 1002.76 1004.84 1006.48 1007.86 1008.26
1021.20 1020.85 1020.41 1020.08 1019.62 1019.14 1018.72 1018.19 1017.68 1017.01 1015.93 1014.50 1014.33 1012.77 1010.08 1009.52 1009.65 1009.93 1009.42 1007.75 1005.62 1003.84 1003.05 1002.67 1002.14 1002.09 1002.00 1001.84 1001.52 1001.41 1000.72 999.64 999.23 999.41 1000.07 1001.03 1001.49 1001.08 1000.34 999.78 1000.30 1001.62 1002.54 1004.24 1005.33 1006.52 1007.02
1020.75 1020.44 1020.07 1019.64 1019.29 1018.96 1018.36 1018.00 1017.47 1017.01 1016.33 1014.99 1015.03 1013.61 1010.26 1010.05 1010.16 1009.82 1008.72 1006.82 1004.98 1003.42 1002.62 1002.35 1002.08 1002.03 1002.01 1001.98 1001.55 1001.18 1000.38 999.31 998.56 998.97 1000.10 1000.37 1000.69 1001.11 1000.29 999.63 999.50 1000.14 1001.35 1002.76 1004.52 1006.09 1006.25
1020.27 1020.01 1019.65 1019.33 1018.92 1018.43 1018.04 1017.74 1017.49 1016.93 1016.64 1016.62 1015.42 1014.08 1010.48 1010.23 1010.50 1009.68 1008.13 1006.63 1004.96 1003.72 1002.76 1002.18 1002.06 1001.79 1001.65 1001.84 1001.66 1000.57 999.69 998.15 998.21 998.94 999.18 999.43 1000.00 1000.61 1000.44 1000.07 999.57 999.67 1000.57 1001.70 1002.83 1003.78 1004.53
1019.48 1019.19 1019.03 1018.77 1018.37 1018.04 1017.63 1017.36 1017.11 1016.90 1016.48 1016.44 1016.12 1014.70 1011.89 1010.66 1010.52 1010.07 1009.10 1007.07 1005.46 1003.80 1002.96 1002.33 1001.86 1001.79 1001.93 1001.85 1001.28 1000.26 999.25 998.04 997.78 997.83 997.70 997.92 998.78 998.90 998.67 998.71 999.07 999.55 999.95 1000.78 1001.53 1002.99 1003.05
1019.13 1018.86 1018.60 1018.28 1017.95 1017.56 1017.28 1017.01 1016.67 1016.57 1016.19 1016.32 1015.91 1014.83 1013.74 1012.29 1011.20 1010.70 1009.85 1007.88 1006.18 1004.73 1003.20 1002.34 1001.89 1001.79 1001.78 1001.70 1000.81 999.98 999.09 998.34 997.79 997.71 997.72 997.44 997.79 997.94 997.34 997.92 998.33 998.29 998.67 999.43 1000.23 1000.28 1000.70
1018.48 1018.17 1017.98 1017.80 1017.43 1017.09 1016.86 1016.57 1016.41 1016.32 1016.05 1016.26 1015.88 1015.35 1014.28 1013.17 1011.85 1010.87 1009.51 1008.21 1006.76 1005.42 1004.35 1002.92 1002.26 1001.50 1001.35 1000.99 999.99 999.44 998.81 998.37 997.46 997.75 998.34 998.55 998.37 997.78 997.28 997.33 997.52 997.64 997.58 997.88 998.44 999.05 999.50
1017.97 1017.70 1017.36 1017.11 1016.84 1016.57 1016.42 1016.17 1015.97 1015.92 1016.23 1016.42 1015.97 1015.59 1015.10 1013.09 1012.12 1011.17 1009.64 1008.62 1007.31 1006.71 1004.31 1003.03 1002.42 1002.15 1001.30 1000.36 1000.04 998.95 998.40 998.26 997.74 998.06 999.40 999.69 999.00 999.08 997.92 997.34 997.46 997.06 996.39 996.95 997.38 997.74 997.92
1017.32 1017.03 1016.69 1016.43 1016.15 1016.05 1015.88 1015.82 1015.72 1015.47 1015.84 1016.21 1016.03 1015.97 1015.22 1013.30 1012.04 1010.86 1009.86 1009.10 1007.76 1006.93 1005.92 1003.28 1003.10 1002.69 1000.58 1000.07 998.99 998.26 998.00 997.63 998.35 998.29 999.21 999.79 999.68 999.57 998.52 998.21 997.65 995.57 995.23 995.54 996.33 996.72 996.94
1016.63 1016.35 1016.05 1015.82 1015.57 1015.41 1015.30 1015.09 1015.20 1015.02 1015.17 1015.83 1015.73 1016.11 1015.29 1013.57 1011.91 1010.55 1009.86 1009.14 1008.03 1007.00 1005.39 1003.84 1002.60 1001.80 1001.00 1000.75 999.85 998.87 998.25 997.88 997.26 997.84 999.39 1000.29 1000.17 999.97 999.20 998.69 997.38 996.32 995.98 996.19 996.15 997.08 997.03
1016.09 1015.76 1015.55 1015.22 1015.01 1014.90 1014.77 1014.64 1014.58 1014.39 1014.53 1015.15 1015.34 1015.48 1015.39 1014.19 1011.44 1010.53 1010.09 1009.46 1008.79 1007.25 1005.46 1004.10 1002.62 1001.99 1001.38 1001.09 1000.63 999.80 998.93 998.29 998.66 998.88 999.55 1000.36 1000.90 1000.29 999.91 998.90 998.15 997.26 996.94 996.62 996.49 997.18 997.48
1015.40 1015.27 1014.90 1014.66 1014.44 1014.28 1014.09 1013.96 1014.03 1014.05 1013.93 1014.32 1014.70 1014.65 1014.53 1013.63 1011.45 1010.84 1010.27 1009.66 1008.52 1007.50 1006.78 1005.50 1004.48 1003.09 1002.05 1001.87 1001.71 1000.73 999.44 998.30 998.72 999.17 1000.46 1001.86 1000.45 1000.64 1000.29 999.52 998.58 998.34 997.92 997.49 997.57 998.74 998.41
1014.67 1014.48 1014.36 1014.20 1013.89 1013.72 1013.65 1013.50 1013.36 1013.22 1013.36 1013.74 1014.02 1013.85 1014.05 1013.35 1011.13 1010.39 1009.97 1009.44 1008.74 1008.26 1007.55 1006.23 1005.28 1004.54 1003.61 1003.24 1002.82 1001.60 1000.53 999.57 998.92 998.59 999.79 1000.86 1002.15 1001.53 1000.98 1000.21 1000.18 999.20 998.11 998.14 997.99 998.74 998.84
1013.97 1013.81 1013.72 1013.60 1013.37 1013.16 1013.02 1012.83 1012.86 1012.92 1012.92 1013.03 1013.72 1013.54 1013.30 1013.43 1010.96 1009.77 1009.23 1008.66 1008.04 1007.52 1007.61 1007.23 1006.51 1006.30 1004.92 1004.51 1003.70 1002.79 1001.66 1000.68 999.82 999.76 999.81 1000.80 1001.19 1001.47 1001.89 1001.57 1001.44 1000.59 1000.12 999.57 998.79 998.18 998.78
Wind_Speed
19 20 21 20 21 21 21 22 22 22 22 23 24 24 24 24 25 24 23 22 22 23 20 17 14 11 5 1 14 5 7 3 11 11 10 8 7 7 6 5 4 6 2 8 9 12 11
18 18 19 20 21 22 22 23 23 23 23 23 23 24 24 24 25 25 24 23 23 23 22 16 10 4 2 6 5 3 6 5 7 7 8 8 9 7 5 4 4 3 4 9 7 9 5
18 19 19 20 20 20 22 23 24 25 25 24 24 24 24 25 26 26 26 25 26 26 21 11 4 3 1 19 4 5 1 5 6 6 7 4 4 4 3 1 3 5 7 10 3 4 5
18 19 20 20 20 20 21 22 22 23 24 25 25 26 25 25 26 27 27 27 27 24 13 5 8 2 9 6 2 7 5 3 4 4 4 5 3 3 4 1 5 3 6 6 4 6 8
18 19 20 20 20 21 21 22 23 22 22 23 24 26 27 26 26 26 28 29 25 7 5 10 4 3 11 7 4 3 5 4 7 4 5 3 6 3 1 6 5 4 7 4 3 6 7
17 18 20 20 21 20 21 21 23 23 24 24 24 25 27 27 28 27 29 25 6 2 3 4 3 1 5 3 3 3 2 6 2 6 4 3 4 3 3 5 7 7 7 3 7 10 9
17 18 19 19 21 20 21 21 23 23 24 24 25 25 27 28 28 26 17 5 5 2 1 7 6 6 10 7 5 3 4 4 4 4 7 5 5 7 10 9 8 7 8 17 1 3 4
18 19 19 19 20 20 20 21 22 24 25 25 25 25 26 30 29 27 2 4 4 2 12 12 19 16 15 3 6 11 7 6 4 6 2 3 9 9 8 6 9 9 7 10 2 4 5
18 19 19 19 19 20 19 20 21 22 24 25 25 25 26 30 32 3 2 5 4 3 3 11 7 7 7 14 14 18 9 5 5 6 4 6 4 10 8 5 8 6 10 7 14 6 4
18 18 17 18 19 20 20 21 21 22 23 24 25 25 26 29 4 5 5 2 6 2 4 10 5 7 4 8 6 14 11 8 5 12 7 7 6 11 9 11 8 7 8 8 9 10 7
18 18 18 18 19 20 21 21 22 23 24 24 25 25 25 13 7 5 2 7 7 2 6 5 4 1 3 8 4 6 7 5 9 6 7 8 5 8 5 8 10 9 8 11 8 8 6
18 19 19 20 20 20 21 22 23 23 24 26 24 28 22 1 3 11 11 7 2 6 10 7 3 0 4 2 5 3 6 4 7 6 3 10 4 8 12 5 10 10 8 7 5 5 2
18 19 20 20 19 19 19 21 23 23 25 27 27 29 18 5 7 3 5 4 3 6 4 4 1 3 3 5 5 2 8 7 7 7 6 2 7 3 4 5 1 7 8 2 3 2 7
18 18 19 19 18 19 19 22 23 24 26 28 30 31 5 7 3 4 3 5 6 6 9 5 4 4 2 4 6 6 5 5 2 6 5 7 6 8 4 8 9 6 11 8 7 5 5
19 18 18 18 17 16 18 21 22 23 26 30 28 4 4 4 9 3 6 4 9 8 5 2 5 2 3 4 5 3 4 9 11 10 11 8 8 4 4 6 10 4 4 7 8 2 3
18 19 19 18 17 16 17 20 21 23 26 29 8 6 5 1 8 4 5 7 7 6 3 3 3 3 1 3 6 6 3 5 6 12 6 9 1 8 6 2 3 10 10 4 3 6 5
18 19 19 18 17 16 17 18 19 22 25 24 3 5 3 3 2 5 5 9 8 8 4 5 4 1 1 1 5 4 6 6 5 4 9 7 6 7 6 13 14 3 3 5 7 5 8
18 17 18 17 16 17 18 16 16 18 22 6 3 4 2 2 2 1 4 7 5 5 3 4 1 5 7 6 6 7 9 10 6 6 6 10 11 11 13 4 6 11 11 10 8 6 2
18 18 17 17 17 18 18 15 13 13 14 6 4 5 5 3 3 3 5 5 3 3 4 2 4 7 5 6 4 8 9 10 15 8 8 7 6 10 7 6 2 5 6 6 5 5 9
18 18 15 17 17 17 16 14 11 11 13 3 4 5 5 3 0 2 5 5 5 5 6 6 6 4 3 5 7 7 5 4 5 5 16 14 6 13 18 16 6 6 7 7 8 6 7
19 18 17 18 16 16 16 14 10 10 12 1 2 4 2 4 2 3 2 4 4 5 3 3 5 8 10 8 7 9 11 15 5 2 7 5 14 11 22 11 8 9 8 10 9 7 9
18 17 17 18 18 17 14 12 10 8 9 2 3 3 4 4 4 4 2 3 4 4 3 6 6 9 9 11 12 9 9 7 5 4 6 4 8 7 20 16 12 10 8 10 9 3 7
18 18 18 19 19 16 15 13 9 6 4 2 3 3 2 4 4 2 4 1 7 12 9 13 8 7 11 9 7 9 7 6 7 7 3 3 2 4 13 8 7 7 20 11 7 6 11
19 19 20 20 19 17 16 15 9 6 6 3 1 1 3 6 4 4 8 9 15 10 9 14 13 6 6 8 9 6 5 7 8 4 6 3 1 4 14 5 6 14 6 15 15 5 7
20 20 21 21 20 17 16 15 12 9 6 2 2 2 3 6 7 11 9 6 10 11 7 10 11 7 7 5 3 3 2 1 4 6 3 3 2 3 5 7 4 1 3 5 9 6 2
21 20 21 20 19 18 18 17 15 9 10 3 3 3 2 4 6 10 3 7 7 5 6 6 7 7 2 2 2 7 7 6 3 4 2 6 6 5 3 7 8 5 3 3 4 1 6
21 21 20 20 18 17 17 16 14 13 14 4 3 6 2 5 10 11 7 5 5 4 4 5 8 8 4 0 2 4 5 2 8 13 3 7 6 3 1 1 4 4 9 4 5 4 4
20 19 19 18 16 15 14 16 14 12 14 4 3 5 4 5 12 13 12 10 8 4 4 6 8 3 4 2 2 3 1 1 1 11 15 4 2 4 3 4 0 14 8 5 5 7 5
17 17 17 17 15 15 16 15 13 12 10 3 2 2 3 5 7 11 16 19 17 17 4 4 4 3 3 1 2 2 2 2 2 5 6 7 7 5 1 2 6 9 4 4 2 16 10
Wind_Direction
3 359 358 357 357 355 352 351 350 349 347 344 343 340 337 335 333 330 324 320 316 315 314 314 313 319 324 243 247 289 325 98 142 152 175 160 150 154 184 197 188 216 203 160 169 164 153
1 358 356 354 353 352 350 348 347 346 345 343 341 338 335 333 331 327 322 319 314 314 311 307 300 301 263 251 233 70 58 134 146 128 173 155 183 194 175 205 145 272 139 137 108 101 100
356 354 353 352 351 350 348 347 345 344 342 340 339 338 335 331 330 326 321 316 316 314 307 292 219 190 215 240 174 330 249 197 181 149 151 218 161 121 137 208 237 144 102 66 74 112 101
354 351 349 348 347 346 344 345 344 341 338 336 336 335 333 331 329 324 319 316 316 312 304 153 155 157 240 255 305 297 171 227 169 153 138 204 188 183 193 190 38 88 59 114 209 146 170
350 349 347 347 346 342 340 340 340 338 335 334 334 333 331 330 328 324 318 315 312 311 114 142 121 150 268 314 274 295 165 182 143 152 193 126 131 191 64 106 46 339 149 132 173 199 146
345 346 345 344 343 340 337 338 336 335 334 335 336 334 331 329 328 325 321 310 278 20 183 207 253 13 266 262 307 256 187 155 135 113 107 152 75 111 43 96 186 180 166 122 198 194 163
344 344 342 341 340 339 337 337 334 334 333 333 333 332 332 328 328 324 334 355 8 342 202 220 200 253 285 268 281 270 110 103 118 102 159 187 136 181 188 184 179 150 169 185 169 25 38
342 340 339 340 340 338 339 337 335 333 332 332 332 332 333 328 326 321 324 21 100 200 302 230 248 250 244 43 306 276 126 140 132 198 171 103 206 195 175 173 165 164 152 206 328 140 136
337 336 335 336 337 334 335 335 333 331 331 331 330 331 335 331 322 347 280 232 358 13 248 289 219 232 221 178 219 254 155 150 151 174 203 166 232 145 141 173 132 165 170 162 219 144 63
334 331 334 335 335 336 334 333 333 331 330 330 328 329 337 337 21 324 279 24 334 256 6 277 269 267 145 143 230 217 180 148 167 185 158 216 218 164 155 174 146 157 206 159 140 143 200
331 333 333 333 334 335 333 332 332 331 328 328 326 322 331 336 283 298 255 329 316 107 327 249 272 161 154 161 193 218 173 108 175 162 130 237 191 163 165 185 163 209 149 155 159 169 114
326 328 329 329 330 330 331 330 329 329 328 326 325 314 327 348 266 244 314 325 38 52 251 302 245 342 101 240 290 72 139 102 158 171 141 220 226 163 185 183 174 141 100 61 62 96 97
320 324 324 323 321 323 328 330 329 330 328 324 321 311 308 254 230 133 295 31 52 182 305 263 313 15 205 217 219 210 151 157 161 157 209 280 249 213 147 132 31 84 76 4 28 58 209
313 319 320 321 321 322 330 331 331 330 328 325 319 308 256 203 227 306 41 63 208 228 241 286 284 325 280 14 221 157 109 189 242 117 142 172 237 185 178 165 165 178 149 155 185 180 226
319 315 314 318 320 320 328 329 330 331 330 325 320 313 267 254 185 141 98 190 200 203 228 293 331 69 327 344 70 67 203 191 191 177 185 161 252 296 183 147 142 188 153 187 111 37 88
311 316 320 322 320 320 323 327 332 333 333 327 318 321 275 58 148 102 96 221 217 217 258 47 207 224 228 47 31 32 297 228 207 181 176 214 261 225 246 140 218 164 169 100 1 143 219
307 309 310 313 319 319 318 325 333 334 336 326 16 337 311 143 124 52 187 227 226 245 231 214 209 228 97 341 186 210 233 277 200 209 177 157 133 267 143 208 209 124 154 61 120 133 168
302 304 306 310 312 316 317 320 331 335 337 3 8 329 351 3 40 145 202 198 239 243 187 236 155 212 196 201 233 223 215 217 183 126 160 210 193 219 218 230 203 192 181 162 182 229 211
305 305 305 315 310 314 318 326 327 333 350 324 316 277 304 116 224 253 297 296 284 272 259 233 240 198 187 206 240 200 215 233 236 164 210 183 222 222 288 299 224 188 170 126 117 92 189
303 301 305 309 309 309 313 317 324 326 334 324 313 325 310 35 237 28 351 270 263 275 258 218 222 259 252 253 232 253 245 272 210 220 287 189 175 194 222 228 176 193 175 177 152 144 173
299 302 303 305 304 305 309 309 313 323 335 295 236 253 240 306 322 346 255 293 281 268 282 261 279 217 210 221 224 225 244 264 257 54 341 130 196 197 224 191 178 204 179 171 177 186 163
297 299 298 297 299 305 312 316 309 332 348 283 300 326 344 293 293 310 197 273 304 322 266 258 209 260 274 225 207 231 209 202 191 356 30 342 262 195 229 208 193 224 212 178 195 132 247
296 293 293 293 294 298 297 300 313 307 82 13 304 296 271 286 307 315 243 333 309 324 264 244 280 334 284 251 313 264 224 264 213 119 245 287 186 106 241 178 174 235 232 207 190 181 171
294 292 292 288 283 286 292 292 294 294 166 189 277 274 274 275 253 259 312 313 295 297 291 278 299 251 250 326 278 245 236 254 172 151 157 245 171 165 242 90 167 235 189 214 209 189 206
297 295 293 293 292 282 282 285 278 281 203 166 165 177 285 274 283 284 269 290 299 290 255 270 272 259 345 309 311 266 270 211 28 71 95 191 201 285 178 163 239 58 54 142 157 220 269
293 294 296 298 293 285 282 284 276 270 261 152 203 171 212 280 242 264 338 297 284 284 318 268 306 314 302 199 168 186 197 166 143 99 84 333 263 129 318 145 183 220 312 42 268 101 6
289 289 293 298 294 286 282 279 278 279 264 175 222 186 225 265 262 272 255 272 291 333 275 296 341 323 3 353 190 197 229 183 153 166 94 281 320 116 292 198 297 13 319 311 138 213 326
288 287 284 293 295 291 284 279 276 261 265 195 235 196 186 255 275 263 261 267 284 276 260 335 330 317 331 12 189 249 241 324 121 170 192 210 274 211 224 46 202 358 341 173 150 138 110
287 285 279 284 295 290 287 280 282 277 271 206 231 240 184 223 273 301 265 253 244 240 298 294 268 276 244 292 281 273 310 344 171 130 170 182 174 171 165 79 304 308 316 348 95 100 105